TimePDT,TemperatureF,Dew PointF,Humidity,Sea Level PressureIn,VisibilityMPH,Wind Direction,Wind SpeedMPH,Gust SpeedMPH,PrecipitationIn,Events,Conditions,WindDirDegrees,DateUTC
12:54 AM,55.9,48.9,77,29.88,10.0,SW,4.6,-,N/A,,Clear,220,2013-06-12 07:54:00
1:54 AM,54.0,48.0,80,29.89,10.0,SSW,3.5,-,N/A,,Clear,200,2013-06-12 08:54:00
2:54 AM,53.1,46.9,80,29.89,10.0,WSW,6.9,-,N/A,,Clear,250,2013-06-12 09:54:00
3:54 AM,52.0,46.9,83,29.88,10.0,Calm,Calm,-,N/A,,Clear,0,2013-06-12 10:54:00
4:54 AM,50.0,45.0,83,29.90,10.0,West,5.8,-,N/A,,Clear,270,2013-06-12 11:54:00
5:54 AM,48.0,45.0,89,29.91,10.0,NNW,3.5,-,N/A,,Clear,340,2013-06-12 12:54:00
6:54 AM,50.0,48.0,93,29.92,9.0,Calm,Calm,-,N/A,,Clear,0,2013-06-12 13:54:00
7:54 AM,57.9,51.1,78,29.93,10.0,Calm,Calm,-,N/A,,Clear,0,2013-06-12 14:54:00
8:54 AM,61.0,48.9,64,29.94,10.0,Variable,3.5,-,N/A,,Clear,0,2013-06-12 15:54:00
9:54 AM,66.0,46.9,50,29.94,10.0,SW,5.8,-,N/A,,Clear,230,2013-06-12 16:54:00
10:54 AM,70.0,50.0,49,29.94,10.0,South,6.9,-,N/A,,Clear,180,2013-06-12 17:54:00
11:54 AM,73.0,50.0,44,29.93,10.0,South,11.5,-,N/A,,Clear,190,2013-06-12 18:54:00
12:54 PM,75.0,51.1,43,29.92,10.0,SSW,13.8,19.6,N/A,,Clear,210,2013-06-12 19:54:00
1:54 PM,78.1,51.1,39,29.91,10.0,SSW,17.3,-,N/A,,Clear,200,2013-06-12 20:54:00
2:54 PM,79.0,50.0,36,29.90,10.0,SSW,19.6,-,N/A,,Clear,200,2013-06-12 21:54:00
3:54 PM,81.0,48.9,33,29.89,10.0,SSW,18.4,23.0,N/A,,Clear,210,2013-06-12 22:54:00
4:54 PM,81.0,45.0,28,29.89,10.0,WSW,17.3,25.3,N/A,,Clear,250,2013-06-12 23:54:00
5:54 PM,78.1,44.1,30,29.88,10.0,WSW,16.1,21.9,N/A,,Clear,250,2013-06-13 00:54:00
6:54 PM,73.0,46.0,38,29.90,10.0,West,11.5,-,N/A,,Clear,260,2013-06-13 01:54:00
7:54 PM,66.0,45.0,47,29.91,10.0,SW,12.7,-,N/A,,Clear,220,2013-06-13 02:54:00
8:54 PM,62.1,46.0,56,29.92,10.0,SW,16.1,-,N/A,,Clear,230,2013-06-13 03:54:00
9:54 PM,59.0,45.0,60,29.92,10.0,WSW,17.3,-,N/A,,Clear,250,2013-06-13 04:54:00
10:54 PM,55.9,45.0,67,29.95,10.0,Calm,Calm,-,N/A,,Clear,0,2013-06-13 05:54:00
11:54 PM,55.0,45.0,69,29.95,10.0,WSW,10.4,-,N/A,,Clear,240,2013-06-13 06:54:00